Regional Weather Roundup
Issued by NWS

Current Version | Previous Version | Text Only | Print | Product List | Glossary On
Versions: 1 2 3 4 5 6 7 8 9 10 11 12 13 14 15 16 17 18 19 20 21 22 23 24 25 26 27 28 29 30 31 32 33 34 35 36 37 38 39 40 41 42 43 44 45 46 47 48 49 50
000
ASUS42 KFFC 270603
RWRGA
WEATHER ROUNDUP FOR GEORGIA
NATIONAL WEATHER SERVICE PEACHTREE CITY GA
200 AM EDT THU APR 27 2017

NOTE: "FAIR" INDICATES FEW OR NO CLOUDS BELOW 12,000 FEET WITH NO
SIGNIFICANT WEATHER AND/OR OBSTRUCTIONS TO VISIBILITY.

* = USE WITH CAUTION. THE STATIONS MARKED WITH AN ASTERISK MAY NOT
REPORT WEATHER SUCH AS PRECIPITATION, FOG, OR THUNDER AND ARE NOT
QUALITY CONTROLLED BY NWS.

THE REMARK "TC" DENOTES TEMPERATURE READING IN DEGREES CELSIUS.

GAZ001>058-270700-
NORTH GEORGIA

CITY           SKY/WX    TMP DP  RH WIND       PRES   REMARKS
ATLANTA        PTCLDY    67  56  67 S9        29.83R
6HR MIN TEMP:  67; 6HR MAX TEMP:  77;

ATHENS         CLOUDY    65  60  84 CALM      29.83S
6HR MIN TEMP:  64; 6HR MAX TEMP:  75;

CHAMBLEE       PTCLDY    65  55  70 S6        29.83R
6HR MIN TEMP:  65; 6HR MAX TEMP:  75;

PEACHTREE CITY CLEAR     64  57  78 S3        29.83R
6HR MIN TEMP:  60; 6HR MAX TEMP:  76;

ROME           CLOUDY    66  58  75 S7        29.76S
6HR MIN TEMP:  64; 6HR MAX TEMP:  78;

WEST ATLANTA   CLOUDY    69  57  65 S8        29.81R
6HR MIN TEMP:  69; 6HR MAX TEMP:  79;

GAINESVILLE    MOCLDY    66  58  75 SE5       29.85S
6HR MIN TEMP:  65; 6HR MAX TEMP:  75;

CARTERSVILLE   CLOUDY    66  56  70 CALM      29.79R
6HR MIN TEMP:  62; 6HR MAX TEMP:  75;



CITY           SKY/WX    TMP DP  RH WIND       PRES   REMARKS
DALTON*        CLOUDY    68  59  73 SE9       29.77S
MARIETTA       PTCLDY    68  55  64 S9        29.81R
CANTON*        CLOUDY    64  52  63 E3        29.84R
$$

GAZ059>098-102>109-270700-
CENTRAL GEORGIA

CITY           SKY/WX    TMP DP  RH WIND       PRES   REMARKS
AUGUSTA-BUSH   PTCLDY    68  62  81 S6        29.84S
6HR MIN TEMP:  66; 6HR MAX TEMP:  78;

AUGUSTA-DANIEL CLEAR     68  60  75 SE5       29.85F
6HR MIN TEMP:  68; 6HR MAX TEMP:  80;

COLUMBUS       MOCLDY    69  56  62 S9        29.81S
6HR MIN TEMP:  68; 6HR MAX TEMP:  80;

MACON          CLEAR     68  55  63 SW9       29.83S
6HR MIN TEMP:  66; 6HR MAX TEMP:  75;

ROBINS AFB     CLEAR     65  57  76 S7        29.83S


CITY           SKY/WX    TMP DP  RH WIND       PRES   REMARKS
LAGRANGE*      PTCLDY    65  61  87 CALM      29.80F
SYLVANIA*      CLEAR    N/A N/A N/A CALM      29.88S
MILLEDGEVILLE* MOCLDY    64  63  94 CALM      29.83F
$$

GAZ099>101-110>166-270700-
SOUTH GEORGIA

CITY           SKY/WX    TMP DP  RH WIND       PRES   REMARKS
SAVANNAH       CLEAR     69  62  78 S7        29.89R
6HR MIN TEMP:  68; 6HR MAX TEMP:  73;

VALDOSTA       MOCLDY    64  59  83 S3        29.87F
6HR MIN TEMP:  59; 6HR MAX TEMP:  73;

ALMA           PTCLDY    62  56  80 CALM      29.88S
6HR MIN TEMP:  62; 6HR MAX TEMP:  76;

ST SIMONS      CLEAR     72  65  78 SW9       29.90R
6HR MIN TEMP:  72; 6HR MAX TEMP:  73;

FT STEWART     CLEAR     64  60  88 S3        29.87R
ALBANY         PTCLDY    65  60  84 SE5       29.85F
HUNTER AFB     CLEAR     70  67  90 SW7       29.86S
MOODY AFB      PTCLDY    63  57  80 S3        29.86F
BRUNSWICK      CLEAR     72  68  88 S8        29.90S


CITY           SKY/WX    TMP DP  RH WIND       PRES   REMARKS
BAINBRIDGE*    MOCLDY    72  66  83 S7        29.83F
MOULTRIE*      PTCLDY    64  61  88 S3        29.87F
VIDALIA*       CLEAR     66  55  68 S5        29.87F
WAYCROSS*      CLEAR     63  59  85 CALM      29.89F
DOUGLAS*       CLEAR     63  54  72 CALM      29.89F
$$



USA.gov is the U.S. government's official web portal to all federal, state and local government web resources and services.